SL-14 DEB, 45271

Orbit data source: Space-Track

SL-14 DEB, 45271 is space debris in LEO originally from a launch on Thu, 15 Aug 1991 UTC launched from the Plesetsk Missile And Space Complex (PKMTR). Debris objects in space refer to the collection of defunct objects orbiting the Earth. Examples of debris include non-operational satellites, rocket bodies, and fragments generated from explosions, collisions, or faulty payload assembly.

Loading next visibility...
Identifier
45271, 1991-056H
Orbit
LEO
Country
Flag of CISCIS
Related business
Manufacturer
Unknown
Mission
Spacecraft
Bus & Motor
Unknown
Mass
Unknown
Launch date (UTC)
1991-08-15 (35 years ago)
Launch vehicle
Unknown
Launch site
Plesetsk Missile And Space Complex (PKMTR)
Object type
Payload
Rocket body
Debris
Shape & HBR
Unknown shape, 0.1 m
Radar Cross Section
Small (<0.1 m²)

Expand to show TLE details & history
Last TLE update: 11 hours ago

TLE from 11 hours ago
0 SL-14 DEB
1 45271U 91056H   26258.51642285 -.00000020  00000-0 -98066-4 0  9993
2 45271  82.3843  94.4098 0050775 123.3393 237.2599 13.06728158313635
Epoch: 2026-09-15T12:23Z
TLE epoch observation values (Epoch: 2026-09-15T12:23:38.934Z)
Latitude
-0.00001°
Longitude
-85.98367°
Altitude
1,259.681 km
Speed
7.216 km/s
True Right ascension
06h 17m 38s
True Declination
0° 00' 00"
Sunlit
Object was in daylight at epoch
Visualization orbit readout
Latitude
Unknown
Longitude
Unknown
Altitude
Unknown
Speed
Unknown
Apparent Right ascension
Unknown
Apparent Declination
Unknown
Sunlit
N/A
Visualization observer readout
Local Sidereal Time
15:48:45
Azimuth
Unknown
Elevation
Unknown
Doppler factor
Unknown
Orbital elements
Apogee altitude
1,271.754 km
Perigee altitude
1,194.461 km
Semi-major axis
7,611.245 km
Eccentricity
0.00508
Inclination
82.3843°
RAAN
94.4098°
Arg. of periapsis
123.3393°
True anomaly
236.77218°
Mean anomaly
237.2599°
Eccentric anomaly
237.01587°
Mean motion
3.26858 °/min
Orbital period
110.14 mins
BSTAR
-0.000098066
Loading maneuver chart data...
Computing Atmospheric mass density...
Loading historical data...
Loading historical data...
Loading historical data...
Loading historical data...
Loading historical data...
Loading historical data...
Loading historical data...

Documentation

Showing up to 5 results
|